TimeMDT,TemperatureF,Dew PointF,Humidity,Sea Level PressureIn,VisibilityMPH,Wind Direction,Wind SpeedMPH,Gust SpeedMPH,PrecipitationIn,Events,Conditions,WindDirDegrees,DateUTC
12:56 AM,32.9,20.1,59,30.15,10.0,Calm,Calm,-,N/A,,Clear,0,2012-10-10 06:56:00
1:56 AM,30.0,17.1,59,30.04,10.0,Calm,Calm,-,N/A,,Clear,0,2012-10-10 07:56:00
2:56 AM,32.0,20.1,62,30.03,10.0,Variable,4.6,-,N/A,,Clear,0,2012-10-10 08:56:00
3:56 AM,30.0,18.1,61,30.01,10.0,East,4.6,-,N/A,,Clear,100,2012-10-10 09:56:00
4:56 AM,29.1,18.1,64,30.02,10.0,NE,5.8,-,N/A,,Clear,40,2012-10-10 10:56:00
5:56 AM,28.0,19.0,69,30.03,10.0,Calm,Calm,-,N/A,,Clear,0,2012-10-10 11:56:00
6:56 AM,28.0,18.1,66,30.06,10.0,Calm,Calm,-,N/A,,Clear,0,2012-10-10 12:56:00
7:56 AM,29.1,19.0,66,30.08,10.0,Calm,Calm,-,N/A,,Clear,0,2012-10-10 13:56:00
8:56 AM,41.9,21.0,43,30.04,10.0,Calm,Calm,-,N/A,,Clear,0,2012-10-10 14:56:00
9:56 AM,50.0,22.1,33,30.01,10.0,Calm,Calm,-,N/A,,Clear,0,2012-10-10 15:56:00
10:56 AM,59.9,16.2,18,29.98,10.0,SSW,8.1,-,N/A,,Clear,200,2012-10-10 16:56:00
11:56 AM,61.9,16.2,17,29.97,10.0,WSW,5.8,-,N/A,,Clear,240,2012-10-10 17:56:00
12:56 PM,63.0,17.1,17,29.95,10.0,Variable,4.6,-,N/A,,Clear,0,2012-10-10 18:56:00
1:56 PM,65.8,14.0,13,29.92,10.0,SW,10.4,-,N/A,,Clear,230,2012-10-10 19:56:00
2:56 PM,66.9,14.0,13,29.89,10.0,West,9.2,-,N/A,,Clear,270,2012-10-10 20:56:00
3:56 PM,65.8,12.0,12,29.89,10.0,West,11.5,-,N/A,,Scattered Clouds,260,2012-10-10 21:56:00
4:56 PM,68.0,13.1,12,29.87,10.0,WSW,16.1,-,N/A,,Mostly Cloudy,240,2012-10-10 22:56:00
5:56 PM,64.9,15.1,15,29.88,10.0,West,10.4,-,N/A,,Clear,260,2012-10-10 23:56:00
6:56 PM,57.9,18.1,21,29.91,10.0,West,4.6,-,N/A,,Clear,270,2012-10-11 00:56:00
7:56 PM,47.8,16.2,28,29.95,10.0,East,8.1,-,N/A,,Partly Cloudy,80,2012-10-11 01:56:00
8:56 PM,46.9,18.1,32,29.91,10.0,East,9.2,-,N/A,,Partly Cloudy,80,2012-10-11 02:56:00
9:56 PM,48.9,19.0,31,29.87,10.0,East,5.8,-,N/A,,Scattered Clouds,80,2012-10-11 03:56:00
10:56 PM,46.9,20.1,35,29.84,10.0,East,5.8,-,N/A,,Overcast,100,2012-10-11 04:56:00
11:56 PM,48.9,20.1,32,29.82,10.0,East,6.9,-,N/A,,Scattered Clouds,100,2012-10-11 05:56:00